Salina, KS

12:55 AM CDT on October 01, 2016 (GMT -0500)
Salina Municipal

Weather History for KSLN - September, 2013

Change the Weather History Date:

Friday, September 27, 2013

  Actual Average Record
Temperature  
Mean Temperature 81 °F 65 °F  
Max Temperature 91 °F 77 °F 101 °F (1911)
Min Temperature 71 °F 53 °F 32 °F (1903)
Degree Days  
Heating Degree Days 0 4  
Month to date heating degree days 3 37  
Since 1 July heating degree days 6 38  
Cooling Degree Days 16 4  
Month to date cooling degree days 300 195  
Year to date cooling degree days 1694 1602  
Growing Degree Days 30 (Base 50)    
Moisture  
Dew Point 58 °F    
Average Humidity 46    
Maximum Humidity 54    
Minimum Humidity 37    
Precipitation  
Precipitation T in 0.09 in 1.59 in (1973)
Month to date precipitation 1.21 2.43  
Year to date precipitation 27.45 26.77  
Sea Level Pressure  
Sea Level Pressure 29.75 in    
Wind  
Wind Speed 19 mph (South)    
Max Wind Speed 31 mph    
Max Gust Speed 39 mph    
Visibility 10 miles    
Events      
T = Trace of Precipitation, MM = Missing Value Source: NWS Daily Summary

Daily Weather History Graph

Daily Weather History Graph

Search for Another Location

Airport or City:

Trip Planner

Search our weather history database for the weather conditions in past years. The results will help you decide how hot, cold, wet, or windy it might be!

Date:

Astronomy

Sep. 27, 2013 Rise Set
Actual Time 7:23 AM CDT 7:19 PM CDT
Civil Twilight 6:56 AM CDT 7:45 PM CDT
Nautical Twilight 6:25 AM CDT 8:16 PM CDT
Astronomical Twilight 5:54 AM CDT 8:47 PM CDT
Moon 12:23 AM CDT (9/27) 2:55 PM CDT (9/27)
Length of Visible Light 12h 49m
Length of Day
11h 56m
Last Quarter, 45% of the Moon is Illuminated
Sep 27
Last Quarter
Oct 4
New
Oct 11
First Quarter
Oct 18
Full
Oct 26
Last Quarter

Hourly Weather History & Observations

Time (CDT) Temp. Heat Index Dew Point Humidity Pressure Visibility Wind Dir Wind Speed Gust Speed Precip Events Conditions
12:53 AM 77.0 °F - 59.0 °F 54% 29.74 in 10.0 mi SSE 17.3 mph 25.3 mph N/A   Clear
1:53 AM 77.0 °F - 57.0 °F 50% 29.75 in 10.0 mi South 19.6 mph 27.6 mph N/A   Clear
2:53 AM 77.0 °F - 55.9 °F 48% 29.76 in 10.0 mi South 17.3 mph 26.5 mph N/A   Partly Cloudy
3:53 AM 75.0 °F - 55.9 °F 51% 29.76 in 10.0 mi South 18.4 mph 23.0 mph N/A   Clear
4:53 AM 73.9 °F - 55.0 °F 52% 29.76 in 10.0 mi South 13.8 mph - N/A   Clear
5:53 AM 73.0 °F - 54.0 °F 51% 29.78 in 10.0 mi South 12.7 mph - N/A   Clear
6:53 AM 71.1 °F - 54.0 °F 55% 29.78 in 10.0 mi South 16.1 mph - N/A   Clear
7:53 AM 71.1 °F - 54.0 °F 55% 29.80 in 10.0 mi South 17.3 mph - N/A   Clear
8:53 AM 73.0 °F - 55.9 °F 55% 29.80 in 10.0 mi South 20.7 mph 27.6 mph N/A   Clear
9:53 AM 77.0 °F - 57.0 °F 50% 29.80 in 10.0 mi South 20.7 mph 31.1 mph N/A   Clear
10:53 AM 82.0 °F 82.1 °F 59.0 °F 45% 29.80 in 10.0 mi South 24.2 mph 31.1 mph N/A   Clear
11:53 AM 86.0 °F 86.1 °F 61.0 °F 43% 29.78 in 10.0 mi South 24.2 mph 33.4 mph N/A   Clear
12:53 PM 88.0 °F 88.4 °F 62.1 °F 42% 29.77 in 10.0 mi South 24.2 mph 35.7 mph N/A   Clear
1:53 PM 89.1 °F 89.0 °F 61.0 °F 39% 29.75 in 10.0 mi South 20.7 mph 36.8 mph N/A   Clear
2:53 PM 90.0 °F 90.0 °F 61.0 °F 38% 29.73 in 10.0 mi South 21.9 mph 33.4 mph N/A   Clear
3:53 PM 89.1 °F 88.2 °F 59.0 °F 36% 29.73 in 10.0 mi South 16.1 mph 31.1 mph N/A   Partly Cloudy
4:53 PM 88.0 °F 87.1 °F 59.0 °F 37% 29.72 in 10.0 mi South 20.7 mph 31.1 mph N/A   Partly Cloudy
5:53 PM 87.1 °F 86.5 °F 59.0 °F 39% 29.72 in 10.0 mi SSE 21.9 mph 31.1 mph N/A   Mostly Cloudy
6:53 PM 84.0 °F 83.5 °F 57.9 °F 41% 29.71 in 10.0 mi SSE 20.7 mph 29.9 mph N/A   Partly Cloudy
7:53 PM 82.0 °F 81.7 °F 57.0 °F 42% 29.72 in 10.0 mi SSE 19.6 mph 26.5 mph N/A   Clear
8:53 PM 80.1 °F 80.2 °F 55.9 °F 43% 29.73 in 10.0 mi SSE 18.4 mph 26.5 mph N/A   Clear
9:53 PM 79.0 °F - 57.0 °F 47% 29.74 in 10.0 mi SSE 16.1 mph - N/A   Clear
10:53 PM 77.0 °F - 57.0 °F 50% 29.73 in 10.0 mi SSE 21.9 mph - N/A   Clear
11:53 PM 77.0 °F - 57.0 °F 50% 29.70 in 10.0 mi SSE 16.1 mph 25.3 mph N/A   Partly Cloudy